• In Denmark
  • List of Countries
  • For 7 days
  • Water Temperature
  • Satellite Maps
  • Weather Map
  • Weather Widgets
  • user-avatar
    Login

    Hourly Weather Bokovka

    Today, 18 July, Wednesday

    Time Temperature Precipitation Wind Pressure Humidity
    00:00 +21°C° 0 mm 3 mps 747 mmHg 85%
    01:00 +21°C° 0 mm 3 mps 747 mmHg 86%
    02:00 +20°C° 0 mm 3 mps 747 mmHg 87%
    03:00 +20°C° 0 mm 3 mps 747 mmHg 90%
    04:00 +20°C° 0 mm 3 mps 747 mmHg 88%
    05:00 +21°C° 0 mm 4 mps 748 mmHg 85%
    06:00 +21°C° 0 mm 4 mps 748 mmHg 83%
    07:00 +23°C° 0.3 mm 5 mps 748 mmHg 79%
    08:00 +24°C° 0.3 mm 6 mps 748 mmHg 74%
    09:00 +26°C° 0 mm 6 mps 748 mmHg 70%
    10:00 +26°C° 0.4 mm 6 mps 748 mmHg 69%
    11:00 +27°C° 0.4 mm 6 mps 749 mmHg 67%
    12:00 +27°C° 0.4 mm 6 mps 749 mmHg 65%
    13:00 +27°C° 0.3 mm 6 mps 749 mmHg 64%
    14:00 +27°C° 0.3 mm 5 mps 749 mmHg 63%
    15:00 +28°C° 0 mm 4 mps 749 mmHg 61%
    16:00 +28°C° 0.3 mm 4 mps 749 mmHg 63%
    17:00 +28°C° 0.3 mm 4 mps 749 mmHg 65%
    18:00 +27°C° 0.3 mm 3 mps 749 mmHg 67%
    19:00 +26°C° 0.1 mm 3 mps 749 mmHg 69%
    20:00 +25°C° 0.1 mm 3 mps 750 mmHg 72%
    21:00 +23°C° 0.1 mm 2 mps 750 mmHg 75%
    22:00 +23°C° 0 mm 2 mps 750 mmHg 77%
    23:00 +21°C° 0 mm 2 mps 750 mmHg 78%

    Tomorrow, 19 July, Thursday

    Time Temperature Precipitation Wind Pressure Humidity
    00:00 +21°C° 0 mm 2 mps 750 mmHg 79%
    01:00 +21°C° 0 mm 2 mps 750 mmHg 80%
    02:00 +20°C° 0 mm 2 mps 751 mmHg 81%
    03:00 +20°C° 0 mm 2 mps 751 mmHg 82%
    04:00 +21°C° 0 mm 2 mps 751 mmHg 81%
    05:00 +21°C° 0 mm 2 mps 751 mmHg 79%
    06:00 +23°C° 0 mm 2 mps 751 mmHg 77%
    07:00 +24°C° 0.2 mm 3 mps 751 mmHg 72%
    08:00 +26°C° 0.2 mm 4 mps 751 mmHg 66%
    09:00 +28°C° 0.2 mm 4 mps 751 mmHg 60%
    10:00 +29°C° 0.5 mm 5 mps 752 mmHg 58%
    11:00 +30°C° 0.5 mm 5 mps 752 mmHg 55%
    12:00 +30°C° 0.5 mm 5 mps 752 mmHg 52%
    13:00 +32°C° 0.4 mm 5 mps 752 mmHg 51%
    14:00 +32°C° 0.4 mm 5 mps 752 mmHg 50%
    15:00 +32°C° 0.4 mm 5 mps 752 mmHg 49%
    16:00 +32°C° 0.2 mm 4 mps 752 mmHg 52%
    17:00 +30°C° 0.2 mm 3 mps 752 mmHg 55%
    18:00 +30°C° 0.2 mm 3 mps 752 mmHg 58%
    19:00 +29°C° 0 mm 2 mps 752 mmHg 61%
    20:00 +27°C° 0 mm 1 mps 752 mmHg 64%
    21:00 +25°C° 0 mm 1 mps 753 mmHg 67%
    22:00 +25°C° 0.1 mm 1 mps 753 mmHg 68%
    23:00 +25°C° 0.1 mm 1 mps 753 mmHg 68%

    Day after tomorrow, 20 July, Friday

    Time Temperature Precipitation Wind Pressure Humidity
    00:00 +25°C° 0.1 mm 1 mps 753 mmHg 69%
    01:00 +24°C° 1.4 mm 1 mps 753 mmHg 72%
    02:00 +23°C° 1.4 mm 1 mps 753 mmHg 75%
    03:00 +23°C° 1.4 mm 1 mps 753 mmHg 78%
    04:00 +23°C° 0.2 mm 2 mps 753 mmHg 77%
    05:00 +24°C° 0.2 mm 2 mps 753 mmHg 77%
    06:00 +24°C° 0.2 mm 2 mps 753 mmHg 76%
    07:00 +26°C° 0.1 mm 2 mps 753 mmHg 70%
    08:00 +28°C° 0.1 mm 3 mps 753 mmHg 65%
    09:00 +29°C° 0.1 mm 3 mps 753 mmHg 59%
    10:00 +30°C° 0 mm 3 mps 753 mmHg 54%
    11:00 +33°C° 0 mm 3 mps 753 mmHg 49%
    12:00 +34°C° 0 mm 3 mps 753 mmHg 44%
    13:00 +34°C° 0 mm 3 mps 753 mmHg 43%
    14:00 +35°C° 0 mm 3 mps 752 mmHg 42%
    15:00 +35°C° 0 mm 3 mps 752 mmHg 41%
    16:00 +33°C° 0.2 mm 3 mps 752 mmHg 48%
    17:00 +31°C° 0.2 mm 3 mps 752 mmHg 54%
    18:00 +29°C° 0.2 mm 3 mps 752 mmHg 61%
    19:00 +27°C° 2.3 mm 3 mps 753 mmHg 68%
    20:00 +26°C° 2.3 mm 3 mps 753 mmHg 76%
    21:00 +24°C° 2.3 mm 3 mps 753 mmHg 83%
    22:00 +24°C° 0.3 mm 3 mps 753 mmHg 83%
    23:00 +24°C° 0.3 mm 2 mps 753 mmHg 84%

    21 July, Saturday

    Time Temperature Precipitation Wind Pressure Humidity
    00:00 +24°C° 0.3 mm 1 mps 753 mmHg 84%
    01:00 +23°C° 0.6 mm 1 mps 753 mmHg 85%
    02:00 +23°C° 0.6 mm 1 mps 753 mmHg 87%
    03:00 +23°C° 0.6 mm 1 mps 753 mmHg 88%
    04:00 +23°C° 0 mm 1 mps 753 mmHg 86%
    05:00 +24°C° 0 mm 1 mps 753 mmHg 84%
    06:00 +22°C° 0 mm 0 mps 753 mmHg 82%
    07:00 +26°C° 0.3 mm 1 mps 753 mmHg 76%
    08:00 +27°C° 0.3 mm 1 mps 753 mmHg 71%
    09:00 +28°C° 0.3 mm 1 mps 753 mmHg 65%
    10:00 +30°C° 0.4 mm 1 mps 753 mmHg 60%
    11:00 +31°C° 0.4 mm 1 mps 753 mmHg 55%
    12:00 +32°C° 0.4 mm 1 mps 753 mmHg 49%
    13:00 +32°C° 0 mm 1 mps 753 mmHg 48%
    14:00 +33°C° 0 mm 1 mps 753 mmHg 46%
    15:00 +33°C° 0 mm 1 mps 753 mmHg 44%
    16:00 +33°C° 0 mm 1 mps 753 mmHg 47%
    17:00 +32°C° 0 mm 1 mps 753 mmHg 50%
    18:00 +32°C° 0 mm 1 mps 753 mmHg 53%
    19:00 +30°C° 0 mm 1 mps 753 mmHg 56%
    20:00 +29°C° 0 mm 1 mps 753 mmHg 59%
    21:00 +27°C° 0 mm 1 mps 753 mmHg 62%
    22:00 +26°C° 0.5 mm 2 mps 753 mmHg 68%
    23:00 +25°C° 0.5 mm 2 mps 753 mmHg 74%

    22 July, Sunday

    Time Temperature Precipitation Wind Pressure Humidity
    00:00 +24°C° 0.5 mm 3 mps 753 mmHg 80%
    01:00 +24°C° 0.6 mm 2 mps 753 mmHg 83%
    02:00 +23°C° 0.6 mm 2 mps 753 mmHg 86%
    03:00 +23°C° 0.6 mm 2 mps 753 mmHg 89%
    04:00 +23°C° 0 mm 2 mps 753 mmHg 87%
    05:00 +24°C° 0 mm 1 mps 753 mmHg 85%
    06:00 +24°C° 0 mm 1 mps 753 mmHg 83%
    07:00 +26°C° 0.4 mm 1 mps 753 mmHg 77%
    08:00 +28°C° 0.4 mm 2 mps 753 mmHg 71%
    09:00 +29°C° 0.4 mm 2 mps 753 mmHg 65%
    10:00 +30°C° 0.6 mm 2 mps 753 mmHg 60%
    11:00 +31°C° 0.6 mm 2 mps 753 mmHg 54%
    12:00 +32°C° 0.6 mm 1 mps 753 mmHg 48%
    13:00 +32°C° 0 mm 2 mps 753 mmHg 49%
    14:00 +32°C° 0 mm 2 mps 753 mmHg 50%
    15:00 +32°C° 0 mm 2 mps 753 mmHg 51%
    16:00 +31°C° 0.6 mm 3 mps 753 mmHg 56%
    17:00 +31°C° 0.6 mm 3 mps 753 mmHg 60%
    18:00 +30°C° 0.6 mm 3 mps 753 mmHg 65%
    19:00 +28°C° 0.3 mm 3 mps 753 mmHg 70%
    20:00 +27°C° 0.3 mm 3 mps 753 mmHg 76%
    21:00 +25°C° 0.3 mm 4 mps 753 mmHg 81%
    22:00 +25°C° 0.6 mm 3 mps 753 mmHg 83%
    23:00 +24°C° 0.6 mm 3 mps 753 mmHg 85%

    23 July, Monday

    Time Temperature Precipitation Wind Pressure Humidity
    00:00 +24°C° 0.6 mm 3 mps 753 mmHg 87%
    01:00 +22°C° 0.1 mm 3 mps 753 mmHg 88%
    02:00 +22°C° 0.1 mm 3 mps 753 mmHg 89%
    03:00 +22°C° 0.1 mm 3 mps 753 mmHg 89%
    04:00 +22°C° 0.1 mm 3 mps 754 mmHg 89%
    05:00 +24°C° 0.1 mm 3 mps 754 mmHg 88%
    06:00 +23°C° 0.1 mm 4 mps 754 mmHg 87%
    07:00 +25°C° 0.3 mm 4 mps 754 mmHg 82%
    08:00 +26°C° 0.3 mm 4 mps 754 mmHg 77%
    09:00 +28°C° 0.3 mm 5 mps 754 mmHg 72%
    10:00 +29°C° 1 mm 4 mps 754 mmHg 69%
    11:00 +29°C° 1 mm 4 mps 754 mmHg 66%
    12:00 +30°C° 1 mm 4 mps 754 mmHg 62%
    13:00 +30°C° 0.2 mm 4 mps 754 mmHg 61%
    14:00 +32°C° 0.2 mm 4 mps 754 mmHg 59%
    15:00 +32°C° 0.2 mm 5 mps 753 mmHg 57%
    16:00 +30°C° 0.8 mm 4 mps 754 mmHg 60%
    17:00 +30°C° 0.8 mm 4 mps 754 mmHg 64%
    18:00 +29°C° 0.8 mm 4 mps 754 mmHg 67%
    19:00 +27°C° 1.1 mm 4 mps 754 mmHg 71%
    20:00 +26°C° 1.1 mm 4 mps 754 mmHg 75%
    21:00 +23°C° 1.1 mm 4 mps 754 mmHg 79%
    22:00 +24°C° 1.6 mm 3 mps 755 mmHg 79%
    23:00 +22°C° 1.6 mm 3 mps 755 mmHg 79%
    Show more